www.pogodaiklimat.ru

Погода и климат >> Архив погоды >> Мальдивы >> Kadhdhoo


ПОГОДА в Kadhdhoo

  • Прогноз погоды в Kadhdhoo
  • Монитор погоды в Kadhdhoo
  • Климат города

АРХИВ ПОГОДЫ в Kadhdhoo

Время (UTC), дата Ветер
(напр.,м/с)
 
Видим.   Явления Облачность Т
(С)
Тd
(С)
f
(%)
Тe
(С)
Тes
(С)
Комфортность P
(гПа)
Po
(гПа)
Тmin
(С)
Tmax
(С)
R
(мм)
R24
(мм)
S
(см)
06 18.06 Ю 3 14 км 8/1 570 м
[Cu hum Ci sp]
+30.6 +25.5 74 +45 +57 опасность
перегрева
1012.6 1012.4
09 18.06 В 2 14 км 6/3 540 м
[Cu med, cong Ci sp]
+30.5 +25.3 74 +44 +54 опасность
перегрева
1010.5 1010.3
12 18.06 Ю 2 15 км 9/1 540 м
[Cu med, cong Ac lent Ci sp]
+30.2 +24.8 73 +43 +44 опасность
перегрева
1010.2 1010.0 +31.5
15 18.06 нст 1 15 км 6/1 540 м
[Cu hum Ac trans Ci sp]
+27.4 +24.4 84 +39 +39 очень
душно
1012.0 1011.8
18 18.06 нст 1 15 км 8/1 540 м
[Cu med, cong Ac trans Ci sp]
+27.9 +24.3 81 +39 +39 очень
душно
1012.6 1012.4
21 18.06 нст 1 15 км 8/3 540 м
[Cu med, cong Ac trans Ci sp]
+27.8 +24.5 82 +39 +39 очень
душно
1010.9 1010.7
00 19.06 ЮВ 2 15 км 6/3 540 м
[Cu med, cong Ac lent Ci sp]
+27.7 +24.4 82 +39 +39 очень
душно
1010.2 1010.0
03 19.06 ЮВ 2 15 км 9/1 540 м
[Cu med, cong Ac lent Ci sp]
+29.3 +24.9 77 +42 +44 опасность
перегрева
1011.3 1011.1 +26.8
06 19.06 В 3 15 км 6/3 540 м
[Cu med, cong Ci sp]
+30.7 +24.9 71 +44 +54 опасность
перегрева
1011.8 1011.6
09 19.06 Ю 3 18 км 4/3 540 м
[Cb cap Ci sp]
+30.4 +25.6 76 +45 +54 опасность
перегрева
1009.8 1009.6
12 19.06 Ю 4 18 км 9/3 540 м
[Cu med, cong Ac lent Ci sp]
+29.0 +25.0 79 +42 +42 опасность
перегрева
1010.0 1009.8 +31.8
15 19.06 ЮВ 2 18 км 8/1 540 м
[Cu med, cong Ac trans Ci sp]
+27.8 +24.0 80 +39 +39 очень
душно
1011.9 1011.7
18 19.06 В 3 18 км зарница 9/3 540 м
[Cb cap Ac trans Ci sp]
+27.6 +24.4 83 +39 +39 очень
душно
1012.0 1011.8
21 19.06 ЮВ 2 18 км 9/3 540 м
[Cu med, cong Ac trans Ci sp]
+27.4 +24.7 85 +39 +39 очень
душно
1010.3 1010.1
00 20.06 Ю 3 15 км 9/3 540 м
[Cu med, cong Ac trans Ci sp]
+27.5 +24.9 86 +39 +39 очень
душно
1010.2 1010.0
03 20.06 Ю 3 12 км 9/4 540 м
[Cb cap Ac trans Ci sp]
+28.4 +25.0 82 +41 +42 опасность
перегрева
1012.0 1011.8 +27.0
06 20.06 З 2 8000 м слабый ливневой дождь 9/4 480 м
[Cb cap Ac As]
+24.9 +24.0 95 +34 +39 очень
душно
1012.9 1012.7 21
09 20.06 Ю 4 10 км {ливн. осадки} 9/5 500 м
[Cb cap Ac As]
+26.4 +24.1 87 +37 +39 очень
душно
1011.4 1011.2
12 20.06 Ю 2 10 км {ливн. осадки} 9/3 500 м
[Cu med, cong Ac As]
+26.7 +24.4 87 +37 +38 очень
душно
1010.3 1010.1 +29.5 21
15 20.06 Ю 3 12 км 9/3 500 м
[Cu med, cong Ac As]
+27.0 +24.1 84 +37 +37 очень
душно
1011.7 1011.5
18 20.06 Ю 3 12 км 9/3 540 м
[Cu med, cong Ac As]
+27.2 +24.2 84 +38 +38 очень
душно
1012.5 1012.3
21 20.06 Ю 2 12 км 9/3 540 м
[Cu med, cong Ac trans Ci sp]
+27.0 +24.1 84 +37 +37 очень
душно
1010.8 1010.6
00 21.06 Ю 2 12 км 9/3 540 м
[Cu med, cong Ac As]
+27.2 +24.2 84 +38 +38 очень
душно
1010.8 1010.6
03 21.06 Ю 3 12 км 9/1 540 м
[Cu med, cong Ac trans Cs]
+28.8 +23.9 75 +40 +42 очень
душно
1011.9 1011.7 +24.5
06 21.06 Ю 3 8000 м слабый ливневой дождь 9/4 500 м
[Cu med, cong Ac lent Cs]
+30.8 +25.1 72 +45 +50 опасность
перегрева
1012.5 1012.3 0.0
09 21.06 Ю 3 15 км {ливн. осадки} 9/3 540 м
[Cu med, cong Ac trans Ci sp]
+30.8 +25.6 74 +45 +51 опасность
перегрева
1010.6 1010.4
12 21.06 ЮЗ 2 12 км в посл. час ливневой дождь 9/4 500 м
[Cb cap Ac trans Ci sp]
+26.0 +24.7 93 +37 +37 очень
душно
1010.3 1010.1 +31.5 7
15 21.06 Ю 2 14 км 9/3 540 м
[Cu med, cong Ac trans Ci sp]
+26.8 +24.5 87 +38 +38 очень
душно
1011.9 1011.7
18 21.06 З 2 14 км 9/1 540 м
[Cu med, cong Ac trans Ci sp]
+27.7 +24.4 82 +39 +39 очень
душно
1012.2 1012.0
21 21.06 ЮЗ 2 14 км 9/3 540 м
[Cu med, cong Ac As]
+27.7 +24.5 83 +39 +39 очень
душно
1010.7 1010.5
00 22.06 ЮЗ 3 14 км 5/3 540 м
[Cu med, cong Ac lent Ci sp]
+27.8 +24.3 81 +39 +39 очень
душно
1011.1 1010.9
03 22.06 ЮЗ 2 14 км 8/1 540 м
[Cu med, cong Ac lent Ci sp]
+28.5 +24.9 81 +41 +44 опасность
перегрева
1012.2 1012.0 +25.5
06 22.06 Ю 4 15 км 8/3 540 м
[Cu med, cong Ac trans Cs]
+30.4 +25.9 77 +45 +51 опасность
перегрева
1012.1 1011.9
09 22.06 З 3 15 км 9/3 540 м
[Cu med, cong Ac trans Ci sp]
+30.8 +25.1 72 +45 +50 опасность
перегрева
1010.2 1010.0
15 22.06 ЮЗ 2 15 км 9/3 540 м
[Cu med, cong Ac trans Ci sp]
+28.5 +24.0 77 +40 +40 очень
душно
1010.9 1010.7
18 22.06 ЮЗ 2 15 км 5/3 540 м
[Cu med, cong Ac trans Ci sp]
+28.4 +24.2 78 +40 +40 очень
душно
1011.3 1011.1
21 22.06 Ю 2 15 км 5/1 540 м
[Cu med, cong Ci sp]
+27.5 +24.2 82 +38 +38 очень
душно
1009.9 1009.7
00 23.06 нст 1 15 км 5/1 570 м
[Cu med, cong Ci sp]
+26.4 +23.9 86 +36 +36 очень
душно
1009.6 1009.4
03 23.06 нст 1 15 км 3/1 570 м
[Cu med, cong Ci sp]
+29.2 +24.6 76 +41 +46 опасность
перегрева
1011.2 1011.0 +25.6
06 23.06 З 2 15 км 3/1 570 м
[Cu hum Ci fib]
+31.1 +25.3 71 +45 +60 опасность
перегрева
1011.6 1011.4
09 23.06 З 2 15 км 3/3 570 м
[Cu med, cong Ci fib]
+31.2 +25.0 70 +45 +56 опасность
перегрева
1009.5 1009.3
12 23.06 ЮЗ 2 15 км 5/3 540 м
[Cu med, cong Ac lent Ci sp]
+30.2 +25.1 74 +44 +45 опасность
перегрева
1008.9 1008.7 +32.1
15 23.06 Ю 2 15 км 5/3 540 м
[Cu med, cong Ac lent Ci sp]
+28.4 +24.2 78 +40 +40 очень
душно
1010.9 1010.7
18 23.06 Ю 2 15 км 4/3 540 м
[Cu med, cong Ac trans Ci sp]
+28.2 +24.3 79 +39 +39 очень
душно
1012.0 1011.8
21 23.06 Ю 2 15 км 8/1 570 м
[Cu med, cong Ci sp]
+27.3 +24.3 84 +38 +38 очень
душно
1010.1 1009.9
00 24.06 Ю 2 15 км 6/1 570 м
[Cu med, cong Ci sp]
+27.1 +23.9 83 +37 +37 очень
душно
1009.8 1009.6
03 24.06 Ю 2 15 км 4/3 540 м
[Cu med, cong Ci sp]
+29.4 +25.0 77 +42 +45 опасность
перегрева
1011.6 1011.4 +26.6
06 24.06 Ю 3 15 км 4/3 540 м
[Cu med, cong Ci sp]
+30.5 +25.0 73 +44 +55 опасность
перегрева
1012.0 1011.8
09 24.06 Ю 3 15 км 4/3 540 м
[Cu med, cong Ci sp]
+31.4 +25.2 70 +45 +55 опасность
перегрева
1009.8 1009.6
12 24.06 ЮЗ 2 15 км 4/3 540 м
[Cb cap Ci sp]
+30.4 +25.0 73 +44 +45 опасность
перегрева
1009.7 1009.5 +32.0
15 24.06 нст 1 12 км в посл. час ливневой дождь 8/3 540 м
[Cb cap Ac trans Ci sp]
+26.3 +24.9 92 +38 +38 очень
душно
1011.9 1011.7
18 24.06 штиль 0 15 км {ливн. осадки} 9/4 540 м
[Cu med, cong Ac trans Ci sp]
+25.9 +25.3 96 +37 +37 очень
душно
1012.7 1012.5 1
21 24.06 З 2 14 км 9/4 540 м
[Cu med, cong Ac lent Ci sp]
+28.0 +25.2 85 +41 +41 опасность
перегрева
1011.2 1011.0

 

Местоположение метеостанции Kadhdhoo (Мальдивы): широта 1.88 долгота 73.50 высота над уровнем моря 2 м.

В архиве по умолчанию представлена погода в Kadhdhoo за последнюю неделю. Архивные данные за месяц целиком и за предыдущие месяцы, начиная с января 2011 года, Вы можете получить, выбрав интересующий диапазон дат из раскрывающегося списка и нажав кнопку "Ввод!".


*Определитесь, кто Вы:
робот инопланетянин человек

Внимание! Время в таблицах - всемирное. Для получения местного времени необходимо прибавить поправку, которая в Kadhdhoo равна 5 ч.

Смотрите также архив погоды в соседних городах и на ближайших метеорологических станциях:

Погода в Kaadedhdhoo (Мальдивы) (166 км)
Погода в Male (Мальдивы) (258 км)
Погода в Gan (Мальдивы) (287 км)
Погода в Hanimaadhoo (Мальдивы) (541 км)
Погода в Minicoy (Lakshadweep, Индия) (715 км)
Погода в Kanyakumari (Tamil Nadu, Индия) (820 км)
Погода в Thiruvananthapuram Air (Kerala, Индия) (827 км)
Погода в Thiruvananthapuram (Kerala, Индия) (828 км)
Погода в Galle (Шри Ланка) (877 км)
Погода в Punalur (Kerala, Индия) (878 км)

Пояснения к столбцам:

Ветер - указаны скорость ветра в м/с - средняя за 10 мин, порывы в срок и между сроками (в фигурных скобках) и направление, откуда дует ветер: С - северный, СВ - северо-восточный, В - восточный, ЮВ - юго-восточный, Ю - южный, ЮЗ - юго-западный, З - западный, СЗ - северо-западный.
Видимость - горизонтальная дальность видимости в метрах или километрах. При видимости от 1 до 10 км при отсутствии осадков обычно наблюдается дымка, при ухудшении видимости до 1 км и менее - туман. В сухую погоду видимость может ухудшаться дымом, пылью или мглою.
Явления - указаны атмосферные явления, наблюдавшиеся в срок или в последний час перед сроком; фигурными скобками обозначены явления, наблюдавшиеся между сроками (за 1-3 часа до срока); квадратными скобками обозначены град или гололедные отложения с указанием их диаметра в мм.
Облачность - указаны через наклонную черту общая и нижняя облачность в баллах и высота нижней границы облаков в метрах; квадратными скобками обозначены формы облаков: Ci - перистые, Cs - перисто-слоистые, Cc - перисто-кучевые, Ac - высококучевые, As - высокослоистые, Sc - слоисто-кучевые, Ns - слоисто-дождевые, Cu - кучевые, Cb - кучево-дождевые. Подробнее классификацию облаков см. в Атласе облаков (PDF).
T - Температура воздуха - температура, измеренная на высоте 2 м над землей.
Td - Температура точки росы - температура, при понижении до которой содержащийся в воздухе водяной пар достигнет насыщения.
f - Относительная влажность воздуха - влажноcть воздуха, измеренная на высоте 2 м над землей.
Te - Эффективная температура - температура, которую ощущает одетый по сезону человек в тени. Характеристика душности погоды. При расчете учитывается влияние влажности воздуха и скорости ветра на теплоощущения человека.
Tes - Эффективная температура на солнце - температура, которую ощущает человек, с поправкой на солнечный нагрев. Характеристика знойности погоды. Зависит от высоты солнца над горизонтом, облачности и скорости ветра. Ночью, в пасмурную погоду, а также при ветре 12 м/с и более поправка равна нулю.
P - Атмосферное давление - приведенное к уровню моря атмосферное давление.
Po - Атмосферное давление - измеренное на уровне метеостанции атмосферное давление.
Tmin - Минимальная температура - минимум температуры воздуха на высоте 2 м над землей.
Tmax - Максимальная температура - максимум температуры воздуха на высоте 2 м над землей.
R - Количество осадков - Количество выпавших осадков за период времени, мм. При наведении курсора мыши на число - период времени, за который выпало указанное количество осадков.
R24 - Количество осадков - Количество выпавших осадков за 24 часа, мм.
S - Снежный покров - Высота снежного покрова, см. При наведении курсора мыши на число - состояние снежного покрова и степень покрытия местности в баллах.